| time (UTC) | temp C | wind direction | speed KPH | gust KPH | rain 1hr cm | rain 24hr cm | rain mn cm | humidity % | barometer mb |
| 20260503221533 | 8 | 53 | 0.0 | 3.2 | 0.00 | 0.00 | 0.00 | 51 | 1007.0 |
| 20260503220034 | 7 | 121 | 0.0 | 6.4 | 0.00 | 0.00 | 0.00 | 51 | 1006.8 |
| 20260503214530 | 8 | 148 | 6.4 | 16.1 | 0.00 | 0.00 | 0.00 | 51 | 1007.1 |
| 20260503213031 | 8 | 163 | 0.0 | 6.4 | 0.00 | 0.00 | 0.00 | 48 | 1007.3 |
| 20260503211537 | 8 | 165 | 0.0 | 3.2 | 0.00 | 0.00 | 0.00 | 48 | 1007.2 |
| 20260503210032 | 8 | 230 | 3.2 | 6.4 | 0.00 | 0.00 | 0.00 | 46 | 1007.3 |
| 20260503204532 | 9 | 37 | 1.6 | 16.1 | 0.00 | 0.00 | 0.00 | 45 | 1007.3 |
| 20260503203030 | 8 | 309 | 0.0 | 9.7 | 0.00 | 0.00 | 0.00 | 46 | 1007.2 |
| 20260503201530 | 8 | 242 | 1.6 | 11.3 | 0.00 | 0.00 | 0.00 | 45 | 1007.1 |
| 20260503200030 | 8 | 198 | 1.6 | 6.4 | 0.00 | 0.00 | 0.00 | 46 | 1007.4 |
| 20260503194533 | 7 | 144 | 0.0 | 12.9 | 0.00 | 0.00 | 0.00 | 48 | 1007.5 |
| 20260503193038 | 7 | 229 | 1.6 | 9.7 | 0.00 | 0.00 | 0.00 | 51 | 1007.3 |
| 20260503191528 | 7 | 199 | 1.6 | 12.9 | 0.00 | 0.00 | 0.00 | 54 | 1007.4 |
| 20260503190039 | 8 | 194 | 3.2 | 22.5 | 0.00 | 0.00 | 0.00 | 49 | 1007.1 |
| 20260503184527 | 8 | 245 | 8.0 | 27.4 | 0.00 | 0.00 | 0.00 | 46 | 1006.9 |
| 20260503183027 | 8 | 241 | 4.8 | 24.1 | 0.00 | 0.00 | 0.00 | 47 | 1006.8 |
| 20260503181527 | 8 | 269 | 3.2 | 20.9 | 0.00 | 0.00 | 0.00 | 47 | 1006.6 |
| 20260503180027 | 10 | 280 | 4.8 | 14.5 | 0.00 | 0.00 | 0.00 | 46 | 1006.5 |
| 20260503174528 | 12 | 267 | 1.6 | 8.0 | 0.00 | 0.00 | 0.00 | 41 | 1006.6 |
| 20260503173025 | 12 | 18 | 0.0 | 8.0 | 0.00 | 0.00 | 0.00 | 44 | 1006.7 |
| 20260503171524 | 11 | 138 | 3.2 | 11.3 | 0.00 | 0.00 | 0.00 | 45 | 1006.8 |
| 20260503081526 | 5 | 273 | 0.0 | 4.8 | 0.00 | 0.00 | 0.00 | 67 | 1008.2 |
| 20260503071509 | 7 | 234 | 3.2 | 9.7 | 0.00 | 0.00 | 0.00 | 61 | 1008.6 |
| 20260503054520 | 7 | 263 | 1.6 | 9.7 | 0.00 | 0.00 | 0.00 | 62 | 1008.8 |
| 20260503053005 | 7 | 284 | 4.8 | 14.5 | 0.00 | 0.00 | 0.00 | 61 | 1008.7 |
| 20260503051505 | 7 | 271 | 4.8 | 11.3 | 0.00 | 0.00 | 0.00 | 61 | 1008.9 |
| 20260503050004 | 7 | 283 | 4.8 | 12.9 | 0.00 | 0.00 | 0.00 | 62 | 1008.9 |
| 20260503044510 | 6 | 58 | 0.0 | 1.6 | 0.00 | 0.00 | 0.00 | 65 | 1008.9 |
| 20260503043003 | 7 | 282 | 0.0 | 6.4 | 0.00 | 0.00 | 0.00 | 64 | 1008.9 |
| 20260503041503 | 7 | 287 | 1.6 | 19.3 | 0.00 | 0.00 | 0.00 | 61 | 1008.9 |
| 20260503040004 | 7 | 253 | 3.2 | 11.3 | 0.00 | 0.00 | 0.00 | 63 | 1008.7 |
| 20260503034503 | 7 | 246 | 3.2 | 11.3 | 0.00 | 0.00 | 0.00 | 62 | 1008.6 |
| 20260503033003 | 8 | 227 | 3.2 | 9.7 | 0.00 | 0.00 | 0.00 | 62 | 1008.6 |
| 20260503031502 | 8 | 205 | 1.6 | 9.7 | 0.00 | 0.00 | 0.00 | 59 | 1008.5 |
| 20260503030002 | 8 | 267 | 0.0 | 11.3 | 0.00 | 0.00 | 0.00 | 59 | 1008.4 |
| 20260503024501 | 8 | 265 | 1.6 | 9.7 | 0.00 | 0.00 | 0.00 | 58 | 1008.5 |
| 20260503023002 | 8 | 198 | 0.0 | 8.0 | 0.00 | 0.00 | 0.00 | 58 | 1008.2 |
| 20260503021502 | 9 | 223 | 0.0 | 6.4 | 0.00 | 0.00 | 0.00 | 57 | 1008.1 |
| 20260503020001 | 10 | 234 | 0.0 | 4.8 | 0.00 | 0.00 | 0.00 | 57 | 1007.9 |
| 20260503014623 | 10 | 310 | 1.6 | 14.5 | 0.00 | 0.00 | 0.00 | 56 | 1007.8 |
| 20260503013100 | 10 | 132 | 1.6 | 11.3 | 0.00 | 0.00 | 0.00 | 55 | 1007.8 |
| 20260503011559 | 10 | 183 | 3.2 | 11.3 | 0.00 | 0.00 | 0.00 | 54 | 1007.8 |
| 20260503010103 | 11 | 137 | 4.8 | 11.3 | 0.00 | 0.00 | 0.00 | 52 | 1008.1 |
| 20260503004559 | 11 | 215 | 3.2 | 11.3 | 0.00 | 0.00 | 0.00 | 51 | 1007.9 |
| 20260503003106 | 11 | 298 | 1.6 | 16.1 | 0.00 | 0.00 | 0.00 | 51 | 1008.0 |
| 20260503001612 | 10 | 203 | 3.2 | 12.9 | 0.00 | 0.00 | 0.00 | 52 | 1008.0 |
| 20260503000059 | 10 | 133 | 4.8 | 14.5 | 0.00 | 0.00 | 0.00 | 52 | 1008.2 |
| 20260502234557 | 11 | 250 | 3.2 | 16.1 | 0.00 | 0.00 | 0.00 | 51 | 1008.1 |
| 20260502233058 | 11 | 280 | 3.2 | 17.7 | 0.00 | 0.00 | 0.00 | 52 | 1008.2 |
| 20260502231555 | 11 | 202 | 8.0 | 22.5 | 0.00 | 0.00 | 0.00 | 51 | 1008.4 |
| 20260502230055 | 11 | 210 | 8.0 | 19.3 | 0.00 | 0.00 | 0.00 | 47 | 1008.5 |
| 20260502224553 | 11 | 273 | 9.7 | 24.1 | 0.00 | 0.00 | 0.00 | 47 | 1008.4 |
| 20260502223052 | 12 | 270 | 3.2 | 12.9 | 0.00 | 0.00 | 0.00 | 47 | 1008.7 |